Location: Peebles
(55.6412°N, 3.1714°W)
Time: 18:41:03
(UTC+01:00)

Cosmos 1934 Rocket - Pass Details

Date: 03 February 2022
Orbit: 938 x 999 km, 83.0° (Epoch: 25 May)

Event Time Altitude Azimuth Distance (km) Brightness Sun altitude
Rises 04:34:21 0° 122° (ESE) 3,678 7.6 -29.3°
Reaches altitude 10° 04:38:27 10° 96° (E) 2,722 7.2 -28.7°
Maximum altitude 04:41:01 13° 71° (ENE) 2,509 7.0 -28.4°
Drops below altitude 10° 04:43:35 10° 47° (NE) 2,711 7.0 -28.0°
Sets 04:47:37 0° 21° (NNE) 3,650 7.4 -27.5°
